| time (UTC) | temp C | wind direction | speed KPH | gust KPH | rain 1hr cm | rain 24hr cm | rain mn cm | humidity % | barometer mb |
| 20260509224854 | 12 | 0 | 3.2 | 6.4 | 0.00 | 0.00 | 0.00 | 75 | 1013.1 |
| 20260509223420 | 14 | 90 | 3.2 | 6.4 | 0.00 | 0.00 | 0.00 | 65 | 1012.6 |
| 20260509222135 | 14 | 90 | 3.2 | 6.4 | 0.00 | 0.00 | 0.00 | 65 | 1012.6 |
| 20260509220810 | 14 | 90 | 3.2 | 6.4 | 0.00 | 0.00 | 0.00 | 65 | 1012.6 |
| 20260509215504 | 15 | 0 | 1.6 | 16.1 | 0.00 | 0.00 | 0.00 | 59 | 1012.4 |
| 20260509214055 | 15 | 0 | 1.6 | 16.1 | 0.00 | 0.00 | 0.00 | 59 | 1012.4 |
| 20260509212810 | 17 | 45 | 8.0 | 16.1 | 0.00 | 0.00 | 0.00 | 53 | 1012.2 |
| 20260509211539 | 17 | 45 | 8.0 | 16.1 | 0.00 | 0.00 | 0.00 | 53 | 1012.2 |
| 20260509210210 | 17 | 0 | 9.7 | 19.3 | 0.00 | 0.00 | 0.00 | 52 | 1012.2 |
| 20260509204932 | 17 | 0 | 9.7 | 19.3 | 0.00 | 0.00 | 0.00 | 52 | 1012.2 |
| 20260509203600 | 13 | 0 | 8.0 | 11.3 | 0.00 | 0.00 | 0.00 | 69 | 1012.7 |
| 20260509202220 | 13 | 0 | 8.0 | 11.3 | 0.00 | 0.00 | 0.00 | 69 | 1012.7 |
| 20260509200827 | 13 | 0 | 8.0 | 11.3 | 0.00 | 0.00 | 0.00 | 69 | 1012.7 |
| 20260509195535 | 15 | 0 | 6.4 | 9.7 | 0.00 | 0.00 | 0.00 | 70 | 1012.6 |
| 20260509194130 | 15 | 0 | 6.4 | 9.7 | 0.00 | 0.00 | 0.00 | 70 | 1012.6 |
| 20260509192740 | 16 | 0 | 3.2 | 4.8 | 0.00 | 0.00 | 0.00 | 63 | 1012.2 |
| 20260509191330 | 16 | 0 | 3.2 | 4.8 | 0.00 | 0.00 | 0.00 | 63 | 1012.2 |
| 20260509185949 | 19 | 0 | 0.0 | 4.8 | 0.00 | 0.00 | 0.00 | 50 | 1011.6 |
| 20260509184627 | 19 | 0 | 0.0 | 4.8 | 0.00 | 0.00 | 0.00 | 50 | 1011.6 |
| 20260509183315 | 23 | 0 | 0.0 | 4.8 | 0.00 | 0.00 | 0.00 | 38 | 1011.1 |
| 20260509181935 | 23 | 0 | 0.0 | 4.8 | 0.00 | 0.00 | 0.00 | 38 | 1011.1 |
| 20260509180630 | 23 | 0 | 0.0 | 4.8 | 0.00 | 0.00 | 0.00 | 38 | 1011.1 |
| 20260509175306 | 23 | 180 | 3.2 | 14.5 | 0.00 | 0.00 | 0.00 | 32 | 1011.3 |
| 20260509174000 | 23 | 180 | 3.2 | 14.5 | 0.00 | 0.00 | 0.00 | 32 | 1011.3 |
| 20260509172542 | 22 | 135 | 3.2 | 14.5 | 0.00 | 0.00 | 0.00 | 33 | 1011.4 |
| 20260509171145 | 22 | 135 | 3.2 | 14.5 | 0.00 | 0.00 | 0.00 | 33 | 1011.4 |
| 20260509165913 | 22 | 45 | 9.7 | 17.7 | 0.00 | 0.00 | 0.00 | 36 | 1011.6 |
| 20260509164500 | 22 | 45 | 9.7 | 17.7 | 0.00 | 0.00 | 0.00 | 36 | 1011.6 |
| 20260509163110 | 22 | 90 | 9.7 | 17.7 | 0.00 | 0.00 | 0.00 | 32 | 1011.9 |
| 20260509161755 | 22 | 90 | 9.7 | 17.7 | 0.00 | 0.00 | 0.00 | 32 | 1011.9 |
| 20260509160500 | 22 | 45 | 6.4 | 17.7 | 0.00 | 0.00 | 0.00 | 29 | 1012.4 |
| 20260509155152 | 22 | 45 | 6.4 | 17.7 | 0.00 | 0.00 | 0.00 | 29 | 1012.4 |
| 20260509153917 | 22 | 45 | 6.4 | 17.7 | 0.00 | 0.00 | 0.00 | 29 | 1012.4 |
| 20260509152619 | 22 | 135 | 6.4 | 17.7 | 0.00 | 0.00 | 0.00 | 28 | 1012.8 |
| 20260509151212 | 22 | 135 | 6.4 | 17.7 | 0.00 | 0.00 | 0.00 | 28 | 1012.8 |
| 20260509145828 | 21 | 90 | 9.7 | 17.7 | 0.00 | 0.00 | 0.00 | 33 | 1013.2 |
| 20260509144510 | 21 | 90 | 9.7 | 17.7 | 0.00 | 0.00 | 0.00 | 33 | 1013.2 |
| 20260509143105 | 21 | 90 | 6.4 | 16.1 | 0.00 | 0.00 | 0.00 | 32 | 1013.7 |
| 20260509141800 | 21 | 90 | 6.4 | 16.1 | 0.00 | 0.00 | 0.00 | 32 | 1013.7 |
| 20260509140420 | 21 | 90 | 11.3 | 19.3 | 0.00 | 0.00 | 0.00 | 38 | 1014.0 |
| 20260509135215 | 21 | 90 | 11.3 | 19.3 | 0.00 | 0.00 | 0.00 | 38 | 1014.0 |
| 20260509133920 | 21 | 90 | 11.3 | 19.3 | 0.00 | 0.00 | 0.00 | 38 | 1014.0 |
| 20260509132645 | 21 | 90 | 11.3 | 17.7 | 0.00 | 0.00 | 0.00 | 40 | 1014.3 |
| 20260509131245 | 21 | 90 | 11.3 | 17.7 | 0.00 | 0.00 | 0.00 | 40 | 1014.3 |
| 20260509130010 | 21 | 45 | 9.7 | 17.7 | 0.00 | 0.00 | 0.00 | 44 | 1014.7 |
| 20260509124650 | 21 | 45 | 9.7 | 17.7 | 0.00 | 0.00 | 0.00 | 44 | 1014.7 |
| 20260509123220 | 21 | 135 | 6.4 | 14.5 | 0.00 | 0.00 | 0.00 | 48 | 1015.0 |
| 20260509121915 | 21 | 135 | 6.4 | 14.5 | 0.00 | 0.00 | 0.00 | 48 | 1015.0 |
| 20260509120547 | 18 | 180 | 3.2 | 11.3 | 0.00 | 0.00 | 0.00 | 57 | 1016.3 |
| 20260509115055 | 18 | 180 | 3.2 | 11.3 | 0.00 | 0.00 | 0.00 | 57 | 1016.3 |
| 20260509113825 | 18 | 180 | 3.2 | 11.3 | 0.00 | 0.00 | 0.00 | 57 | 1016.3 |
| 20260509112400 | 18 | 180 | 3.2 | 11.3 | 0.00 | 0.00 | 0.00 | 57 | 1016.3 |
| 20260509110955 | 18 | 180 | 3.2 | 11.3 | 0.00 | 0.00 | 0.00 | 57 | 1016.3 |
| 20260509105605 | 18 | 180 | 3.2 | 11.3 | 0.00 | 0.00 | 0.00 | 57 | 1016.3 |
| 20260509104258 | 18 | 180 | 3.2 | 11.3 | 0.00 | 0.00 | 0.00 | 57 | 1016.3 |
| 20260509102920 | 18 | 270 | 3.2 | 11.3 | 0.00 | 0.00 | 0.00 | 62 | 1016.5 |
| 20260509101505 | 18 | 270 | 3.2 | 11.3 | 0.00 | 0.00 | 0.00 | 62 | 1016.5 |
| 20260509100150 | 17 | 270 | 4.8 | 12.9 | 0.00 | 0.00 | 0.00 | 62 | 1016.9 |
| 20260509094740 | 17 | 270 | 4.8 | 12.9 | 0.00 | 0.00 | 0.00 | 62 | 1016.9 |
| 20260509093336 | 15 | 270 | 4.8 | 12.9 | 0.00 | 0.00 | 0.00 | 65 | 1017.3 |
| 20260509091907 | 15 | 270 | 4.8 | 12.9 | 0.00 | 0.00 | 0.00 | 65 | 1017.3 |
| 20260509090557 | 15 | 270 | 6.4 | 11.3 | 0.00 | 0.00 | 0.00 | 70 | 1017.6 |
| 20260509085125 | 15 | 270 | 6.4 | 11.3 | 0.00 | 0.00 | 0.00 | 70 | 1017.6 |
| 20260509083641 | 15 | 270 | 6.4 | 11.3 | 0.00 | 0.00 | 0.00 | 70 | 1017.6 |
| 20260509082350 | 13 | 270 | 4.8 | 11.3 | 0.00 | 0.00 | 0.00 | 74 | 1017.7 |
| 20260509080925 | 13 | 270 | 4.8 | 11.3 | 0.00 | 0.00 | 0.00 | 74 | 1017.7 |
| 20260509075540 | 13 | 270 | 4.8 | 9.7 | 0.00 | 0.00 | 0.00 | 78 | 1017.6 |
| 20260509074118 | 13 | 270 | 4.8 | 9.7 | 0.00 | 0.00 | 0.00 | 78 | 1017.6 |
| 20260509072747 | 13 | 315 | 3.2 | 6.4 | 0.00 | 0.00 | 0.00 | 79 | 1017.4 |
| 20260509071543 | 13 | 315 | 3.2 | 6.4 | 0.00 | 0.00 | 0.00 | 79 | 1017.4 |
| 20260509070210 | 12 | 225 | 1.6 | 3.2 | 0.00 | 0.00 | 0.00 | 79 | 1017.6 |
| 20260509065000 | 12 | 225 | 1.6 | 3.2 | 0.00 | 0.00 | 0.00 | 79 | 1017.6 |
| 20260509063654 | 12 | 225 | 1.6 | 3.2 | 0.00 | 0.00 | 0.00 | 79 | 1017.6 |
| 20260509062415 | 11 | 45 | 3.2 | 3.2 | 0.00 | 0.10 | 0.00 | 90 | 1017.5 |
| 20260509061030 | 11 | 45 | 3.2 | 3.2 | 0.00 | 0.10 | 0.00 | 90 | 1017.5 |
| 20260509055815 | 10 | 90 | 1.6 | 6.4 | 0.00 | 0.10 | 0.00 | 98 | 1017.5 |
| 20260509054347 | 10 | 90 | 1.6 | 6.4 | 0.00 | 0.10 | 0.00 | 98 | 1017.5 |
| 20260509053105 | 9 | 0 | 1.6 | 6.4 | 0.00 | 0.10 | 0.00 | 96 | 1017.3 |
| 20260509051835 | 9 | 0 | 1.6 | 6.4 | 0.00 | 0.10 | 0.00 | 96 | 1017.3 |
| 20260509050405 | 10 | 0 | 3.2 | 9.7 | 0.00 | 0.10 | 0.00 | 96 | 1017.3 |
| 20260509045115 | 10 | 0 | 3.2 | 9.7 | 0.00 | 0.10 | 0.00 | 96 | 1017.3 |
| 20260509043805 | 10 | 0 | 3.2 | 9.7 | 0.00 | 0.10 | 0.00 | 96 | 1017.3 |
| 20260509042420 | 10 | 315 | 6.4 | 9.7 | 0.00 | 0.10 | 0.00 | 96 | 1017.3 |
| 20260509041035 | 10 | 315 | 6.4 | 9.7 | 0.00 | 0.10 | 0.00 | 96 | 1017.3 |
| 20260509035712 | 10 | 0 | 6.4 | 9.7 | 0.00 | 0.10 | 0.00 | 97 | 1017.4 |
| 20260509034405 | 10 | 0 | 6.4 | 9.7 | 0.00 | 0.10 | 0.00 | 97 | 1017.4 |
| 20260509033034 | 10 | 315 | 3.2 | 6.4 | 0.00 | 0.10 | 0.00 | 98 | 1017.2 |
| 20260509031625 | 10 | 315 | 3.2 | 6.4 | 0.00 | 0.10 | 0.00 | 98 | 1017.2 |
| 20260509030355 | 10 | 0 | 4.8 | 6.4 | 0.00 | 0.10 | 0.00 | 97 | 1017.1 |
| 20260509025035 | 10 | 0 | 4.8 | 6.4 | 0.00 | 0.10 | 0.00 | 97 | 1017.1 |
| 20260509023655 | 10 | 0 | 4.8 | 6.4 | 0.00 | 0.10 | 0.00 | 97 | 1017.1 |
| 20260509022306 | 10 | 0 | 4.8 | 6.4 | 0.00 | 0.10 | 0.00 | 98 | 1017.0 |
| 20260509021026 | 10 | 0 | 4.8 | 6.4 | 0.00 | 0.10 | 0.00 | 98 | 1017.0 |
| 20260509015703 | 10 | 315 | 3.2 | 9.7 | 0.00 | 0.10 | 0.00 | 96 | 1017.1 |
| 20260509014355 | 10 | 315 | 3.2 | 9.7 | 0.00 | 0.10 | 0.00 | 96 | 1017.1 |
| 20260509013040 | 10 | 315 | 3.2 | 6.4 | 0.00 | 0.10 | 0.00 | 94 | 1016.8 |
| 20260509011715 | 10 | 315 | 3.2 | 6.4 | 0.00 | 0.10 | 0.00 | 94 | 1016.8 |
| 20260509010344 | 11 | 315 | 8.0 | 14.5 | 0.00 | 0.10 | 0.00 | 91 | 1016.8 |
| 20260509004905 | 11 | 315 | 8.0 | 14.5 | 0.00 | 0.10 | 0.00 | 91 | 1016.8 |
| 20260509003615 | 11 | 315 | 8.0 | 14.5 | 0.00 | 0.10 | 0.00 | 91 | 1016.8 |
| 20260509002300 | 12 | 315 | 4.8 | 11.3 | 0.00 | 0.10 | 0.10 | 84 | 1016.6 |
| 20260509000955 | 12 | 315 | 4.8 | 11.3 | 0.00 | 0.10 | 0.10 | 84 | 1016.6 |
| 20260508235500 | 12 | 0 | 11.3 | 29.0 | 0.00 | 0.10 | 0.10 | 82 | 1017.3 |
| 20260508234042 | 12 | 0 | 11.3 | 29.0 | 0.00 | 0.10 | 0.10 | 82 | 1017.3 |
| 20260508232633 | 12 | 0 | 17.7 | 27.4 | 0.00 | 0.08 | 0.08 | 84 | 1017.2 |
| 20260508231209 | 12 | 0 | 17.7 | 27.4 | 0.00 | 0.08 | 0.08 | 84 | 1017.2 |
| 20260508225840 | 13 | 270 | 17.7 | 35.4 | 0.08 | 0.08 | 0.08 | 80 | 1017.1 |